TimeHST,TemperatureF,Dew PointF,Humidity,Sea Level PressureIn,VisibilityMPH,Wind Direction,Wind SpeedMPH,Gust SpeedMPH,PrecipitationIn,Events,Conditions,WindDirDegrees,DateUTC
12:56 AM,72.0,68.0,87,29.96,10.0,NE,10.4,-,N/A,,Clear,40,2013-09-18 10:56:00
1:56 AM,70.9,68.0,91,29.96,10.0,NNE,10.4,-,N/A,,Clear,30,2013-09-18 11:56:00
2:56 AM,70.9,66.9,87,29.94,10.0,NNE,6.9,-,N/A,,Partly Cloudy,20,2013-09-18 12:56:00
3:56 AM,72.0,68.0,87,29.94,10.0,NE,10.4,-,N/A,,Mostly Cloudy,40,2013-09-18 13:56:00
4:56 AM,70.9,68.0,91,29.94,10.0,NNE,8.1,-,N/A,,Clear,30,2013-09-18 14:56:00
5:56 AM,68.9,65.8,90,29.96,10.0,ENE,9.2,-,N/A,,Clear,70,2013-09-18 15:56:00
6:56 AM,70.9,66.9,87,29.97,10.0,NE,5.8,-,N/A,,Clear,50,2013-09-18 16:56:00
7:56 AM,77.0,64.9,66,29.99,10.0,ESE,6.9,-,N/A,,Clear,110,2013-09-18 17:56:00
8:56 AM,81.0,63.9,56,29.99,10.0,Calm,Calm,-,N/A,,Clear,0,2013-09-18 18:56:00
9:40 AM,78.8,66.2,65,30.07,10.0,WSW,6.9,-,N/A,,Mostly Cloudy,240,2013-09-18 19:40:00
9:56 AM,81.9,64.9,56,30.00,10.0,WNW,5.8,-,N/A,,Mostly Cloudy,290,2013-09-18 19:56:00
10:56 AM,80.6,64.4,58,30.06,10.0,West,6.9,-,N/A,,Overcast,270,2013-09-18 20:56:00
11:56 AM,82.9,63.9,52,29.98,10.0,West,8.1,-,N/A,,Mostly Cloudy,260,2013-09-18 21:56:00
12:56 PM,86.9,61.9,43,29.96,10.0,SW,11.5,-,N/A,,Partly Cloudy,230,2013-09-18 22:56:00
1:56 PM,87.8,64.4,46,30.03,10.0,WSW,11.5,-,N/A,,Mostly Cloudy,240,2013-09-18 23:56:00
2:56 PM,86.0,68.0,55,29.93,10.0,SW,15.0,-,N/A,,Scattered Clouds,230,2013-09-19 00:56:00
3:56 PM,81.9,68.0,63,29.94,10.0,WSW,11.5,-,0.00,Rain,Light Rain,250,2013-09-19 01:56:00
4:56 PM,79.9,66.9,64,29.93,10.0,NNE,15.0,19.6,0.00,,Mostly Cloudy,30,2013-09-19 02:56:00
5:04 PM,78.8,68.0,69,30.00,10.0,NNE,12.7,-,N/A,,Scattered Clouds,30,2013-09-19 03:04:00
5:56 PM,79.0,68.0,69,29.94,10.0,NE,13.8,-,N/A,,Clear,40,2013-09-19 03:56:00
6:56 PM,75.9,68.0,76,29.96,10.0,Variable,6.9,-,N/A,,Mostly Cloudy,0,2013-09-19 04:56:00
7:26 PM,75.2,66.2,73,30.03,10.0,NE,8.1,-,N/A,,Scattered Clouds,50,2013-09-19 05:26:00
7:56 PM,72.9,66.9,82,29.98,10.0,ENE,8.1,-,0.00,,Clear,60,2013-09-19 05:56:00
8:42 PM,73.4,68.0,83,30.06,10.0,NE,4.6,-,0.00,,Mostly Cloudy,50,2013-09-19 06:42:00
8:47 PM,73.4,68.0,83,30.06,10.0,East,4.6,-,0.00,,Mostly Cloudy,90,2013-09-19 06:47:00
8:56 PM,72.9,68.0,85,29.99,10.0,ENE,3.5,-,0.00,,Mostly Cloudy,70,2013-09-19 06:56:00
9:03 PM,73.4,66.2,78,30.07,10.0,ENE,3.5,-,N/A,,Partly Cloudy,70,2013-09-19 07:03:00
9:56 PM,72.0,66.9,84,30.00,10.0,East,4.6,-,N/A,,Partly Cloudy,80,2013-09-19 07:56:00
10:56 PM,70.9,66.9,87,30.00,10.0,NNE,6.9,-,N/A,,Clear,30,2013-09-19 08:56:00
11:56 PM,70.9,65.8,84,29.99,10.0,NNE,8.1,-,N/A,,Clear,30,2013-09-19 09:56:00